Weather in Everett

United States     47°56′48″N   122°14′56″W
temp.,
°C
wind,
m/s
gust,
m/s
humid.,
%
clouds,
%
prec.,
mm/h
press.,
hPa
HPBL,
m
7 may, fri
fri723:00+8se249399 1.6 1019187
02:00+7sse379299 0.8 1019584
05:00+6s379497 2.3 1020515
08:00+6wnw0293100 2.1 1021333
11:00+10ssw117786 2.8 1022778
14:00+10n247595 2.4 10231164
17:00+11nw69555 2.8 10221088
20:00+8nw4106982 0.1 1023677
8 may, sat
sat823:00+5nw129329 0.3 102481
02:00+5se139470 0.2 1026129
05:00+6sse259179 0.2 1026287
08:00+7sse248365 0.0 1027493
11:00+12sse125696 0.1 10261522
14:00+12ne115295 0.1 10261339
17:00+13wnw115299 0.2 10251339
20:00+8nnw258361 0.1 1025225
9 may, sun
sun923:00+7ne1190100 0.1 102546
02:00+7e1188100 0.0 102535
05:00+7ese1186100 0.1 102422
08:00+8ese0079100 0.0 1025164
11:00+12nw1265100 0.1 1025994
14:00+15nw344648 0.1 10241676
17:00+14nw45479 0.1 10231259
20:00+10nw27765 0.0 1023217
10 may, mon
mon1023:00+6n22962 0.0 102327
02:00+5ene11955 0.0 102414
05:00+4se11965 0.0 102411
08:00+9n018215 0.0 1025257
11:00+15nw335449 0.0 10241122
14:00+16nw434653 0.0 10231199
17:00+15nw3450100 0.0 1022645
20:00+11nnw2674100 0.0 1021148
11 may, tue
tue1123:00+8nne228681 0.0 102252
02:00+7n239720 0.0 102274
05:00+6ne11975 0.0 102213
08:00+10nne12805 0.0 1022301
11:00+16nw22526 0.0 1021841
14:00+18nnw33448 0.0 1020978
17:00+17nw354694 0.0 1019657
20:00+11nnw2883100 0.0 1020242